Location: *
(33.8649°S, 62.1526°E)
Time: 12:30:16
(UTC+00:00)

Cosmos 1408 Rocket - Pass Details

Date: 17 January 2021
Orbit: 602 x 630 km, 82.6° (Epoch: 02 March)

Event Time Altitude Azimuth Distance (km) Brightness Sun altitude
Rises 17:46:14 0° 187° (S) 2,922 7.9 -26.7°
Reaches altitude 10° 17:48:29 10° 186° (S) 2,003 6.9 -27.0°
Enters shadow 17:51:55 53° 184° (S) 765 4.2 -27.4°
